Other Public Products
Issued by NWS Grand Forks, ND

Home | Current Version | Previous Version | Graphics & Text | Print | Product List | Glossary On
Versions: 1 2 3 4 5 6 7 8 9 10 11 12 13 14 15 16 17 18 19 20 21 22 23 24 25 26 27 28 29 30 31 32 33 34 35 36 37 38 39 40 41 42 43 44 45 46 47 48 49 50
000
FPUS83 KFGF 270931
OPUFGF
PRAIRIE TO PINES WEATHER ROUNDUP
NATIONAL WEATHER SERVICE EASTERN NORTH DAKOTA/GRAND FORKS ND
400 AM CDT MON MAR 27 2017

 **SATELLITE DATA USED TO AUGMENT SKY COVER AT AUTOMATED STATIONS**
 *****  WEATHER ACROSS EASTERN NORTH DAKOTA  *****

CITY           SKY/WX    TMP DP  RH WIND       PRES   REMARKS
GRAND FORKS    FOG       38  38 100 CALM      29.96S VSB 1/4
GRAND FORKS AF FOG       36  36 100 CALM      29.96S VSB 1/4
GRAND CITY NWS NOT AVBL
BUXTON         NOT AVBL
DEVILS LAKE    FOG       30  30 100 E5        29.93F VSB 1/2
FARGO          FAIR      33  32  96 CALM      29.95F FOG
WAHPETON ARPT    N/A     32  32 100 CALM      29.95S
$$

 *****  WEATHER ACROSS CENTRAL AND WESTERN NORTH DAKOTA  *****

CITY           SKY/WX    TMP DP  RH WIND       PRES   REMARKS
JAMESTOWN      FOG       30  30 100 CALM      29.91F VSB 1/4
BISMARCK       FAIR      32  30  92 E5        29.91F
MINOT          FAIR      34  31  88 W3        29.87F
MINOT AFB      FAIR      30  28  93 S6        29.86F WCI  24
GARRISON         N/A     38  32  79 CALM      29.88S
WILLISTON      CLOUDY    34  30  85 CALM      29.88S
DICKINSON      FAIR      38  31  76 W5        29.85F
HETTINGER      FAIR      33  30  88 CALM      29.90F
$$

 *****  OTHER OBSERVATIONS NORTHEAST NORTH DAKOTA  *****

CITY           SKY/WX    TMP DP  RH WIND       PRES   REMARKS
WALHALLA       NOT AVBL
LANGDON        CLOUDY    32  32 100 CALM      29.93F
CAVALIER       FOG       32  32 100 CALM      29.96F VSB<1/4
GRAFTON        FOG       32  32 100 N3        29.98F VSB 1/4
CANDO          NOT AVBL
FORT TOTTEN      N/A     36  36 100 SE5       29.95S
ROLLA          CLOUDY    34  34 100 S8        29.90S FOG
RUGBY          NOT AVBL
 ***** THE ABOVE OBSERVATIONS ARE NON NWS ARE NOT QUALITY
        CONTROLLED AND MAY MIS-REPORT RAIN FOR SNOW...
$$

 *****  OTHER OBSERVATIONS SOUTHEAST NORTH DAKOTA *****

CITY           SKY/WX    TMP DP  RH WIND       PRES   REMARKS
COOPERSTOWN    FOG       32  32 100 NE3       29.93F VSB 1/4
VALLEY CITY    FAIR      30  30 100 CALM      29.94F FOG
OAKES          NOT AVBL
GWINNER        PTSUNNY   34  34 100 MISG      29.93F
SHEYENNE NWR     N/A     35  35 100 CALM      29.95S
BUFFALO        NOT AVBL
WYNDMERE         N/A     34  34 100 SE1         N/A
 ***** THE ABOVE OBSERVATIONS ARE NON NWS ARE NOT QUALITY
       CONTROLLED AND MAY MIS-REPORT RAIN FOR SNOW...
$$

  *****  WEATHER ACROSS NORTHERN MINNESOTA  *****

CITY           SKY/WX    TMP DP  RH WIND       PRES   REMARKS
FLAG ISLAND    FAIR      28  27  93 CALM      29.96R
WARROAD        FOG       28  25  86 W5        29.96S VSB 1   WCI  23
ROSEAU         FAIR      30  27  86 CALM      29.96S FOG
HALLOCK        FOG       30  28  93 CALM      29.96F VSB<1/4
THF RVR FALLS  FOG       30  29  96 CALM      29.97S VSB 1/4
HALSTAD          N/A     31  30  99 NW5         N/A
FOSSTON        MOCLDY    28  28 100 CALM      29.95F FOG
BAUDETTE       FAIR      28  26  92 CALM      29.94S FOG
WASKISH        FAIR      27  27 100 CALM      29.95S
CROOKSTON      FOG       32  32 100 CALM      29.97F VSB 1/4
$$
  *****  WEATHER ACROSS CENTRAL AND WEST MINNESOTA  *****

CITY           SKY/WX    TMP DP  RH WIND       PRES   REMARKS
BEMIDJI        FAIR      33  32  95 W3        29.94F
PARK RAPIDS    CLOUDY    34  29  82 CALM      29.93S
WADENA         FAIR      34  34 100 W5        29.94S
DETROIT LAKES  FAIR      36  36 100 CALM      29.95F FOG
MOORHEAD       FAIR      34  34 100 CALM      29.96F FOG
FERGUS FALLS   FAIR      36  36 100 CALM      29.98F
ELBOW LAKE     FAIR      33  33 100 NE3       29.95F FOG
MORRIS MN      FAIR      34  32  93 NW3       29.95S FOG
STAPLES        CLOUDY    34  30  86 CALM      29.94S
WHEATON        FAIR      32  30  93 E3        29.97F
$$
  *****  WEATHER ELSEWHERE ACROSS MINNESOTA  *****

CITY           SKY/WX    TMP DP  RH WIND       PRES   REMARKS
DULUTH         CLOUDY    31  30  96 N6        29.91F
INTRNTL FALLS  FAIR      27  24  89 CALM      29.94S
ELY            MOCLDY    28  28 100 CALM      29.91S
CLOQUET        MOCLDY    30  28  93 CALM      29.92S FOG
BRAINERD       CLOUDY    34  31  88 CALM      29.94S
HIBBING        CLOUDY    30  30 100 CALM      29.92R
ALEXANDRIA     CLOUDY    36  34  92 NW5       29.95S
SAINT CLOUD    CLOUDY    36  35  96 NW3       29.95R
MINNEAPOLIS    CLOUDY    38  33  82 N9        29.94R
$$

  *****  WEATHER ACROSS SOUTH DAKOTA  *****

CITY           SKY/WX    TMP DP  RH WIND       PRES   REMARKS
SIOUX FALLS    CLOUDY    41  39  93 N3        29.95S
BROOKINGS      CLOUDY    34  34 100 CALM      29.94F FOG
WATERTOWN      CLOUDY    35  34  96 CALM      29.93F
HURON          CLOUDY    37  36  96 SE3       29.94F
SISSETON         N/A     36  35  96 CALM      29.93F
ABERDEEN       FAIR      32  30  92 SE5       29.93F
MITCHELL       FOG       31  31 100 CALM      29.96F VSB 1/2
PIERRE         CLOUDY    40  38  93 CALM      29.92F
MOBRIDGE       FAIR      37  33  85 SE6       29.89F
RAPID CITY     FOG       30  29  96 CALM      29.89S VSB 3/4
$$

  *****  SOME WEATHER IN NEARBY STATES *****

CITY           SKY/WX    TMP DP  RH WIND       PRES   REMARKS
GLASGOW MT     FAIR      31  23  72 E10       29.85S WCI  22
GREAT FALLS MT MOCLDY    38  22  52 S10       29.79R
CHEYENNE WY    FAIR      32  30  92 W7        29.93F
SCOTTSBLUFF NE FAIR      29  26  89 CALM      29.93F
OMAHA NE       CLOUDY    46  41  82 N3        29.93S
DES MOINES IA  CLOUDY    44  43  96 N9        29.91S FOG
DAVENPORT IA   FOG       46  46 100 W5        29.90F VSB 1/4
CHICAGO IL     CLOUDY    51  48  89 W6        29.88S FOG
EAU CLAIRE WI  CLOUDY    37  36  96 N3        29.91R
LA CROSSE WI   CLOUDY    42  41  96 CALM      29.91R
$$

  *****  SOME NATIONAL WEATHER *****

CITY           SKY/WX    TMP DP  RH WIND       PRES   REMARKS
LA GUARDIA NY  DRIZZLE   40  37  89 NE10      30.18F FOG
RALEIGH NC     MOCLDY    62  54  74 SW7       30.11S
ATLANTA GA     FAIR      60  56  86 S5        30.05S
NEW ORLEANS LA FAIR      71  68  90 S7        29.97F
OKLAHOMA CITY  CLOUDY    53  49  86 NW17      29.80R
ALBUQUERQUE NM FAIR      44  23  43 CALM      30.02S
SALT LAKE CITY MOCLDY    49  34  56 SE6       29.90S
LOS ANGELES CA FAIR      57  53  86 CALM      30.03S
BOISE ID       CLOUDY    43  41  93 E6        29.90F
SEATTLE WA     CLOUDY    45  43  93 S10       29.88S
$$

*** WEATHER ACROSS MANITOBA...SASKATCHEWAN AND ONTARIO ***
                ***ONTARIO***

CITY           SKY/WX    TMP DP  RH WIND       PRES   REMARKS
GERALDTON      PTCLDY    23  21  93 W2        29.86F
THUNDER BAY    CLOUDY    30  30 100 SW5       29.90F FOG
SIOUX LOOKOUT  PTCLDY    25  25 100 N3        29.93S
TORONTO        LGT RAIN  45  43  93 S5        29.85F FOG
BIG TROUT LK   CLOUDY    28  23  80 NW12      29.94R WCI  18
PICKLE LAKE    NOT AVBL
DRYDEN         CLEAR     30  28  93 N2        29.94R
KENORA         CLEAR     32  30  93 N6        29.95S
$$
                *** MANITOBA***

CITY           SKY/WX    TMP DP  RH WIND       PRES   REMARKS
BRANDON        MOCLDY    34  32  93 NE13      29.92R WCI  25
DAUPHIN        CLOUDY    32  32 100 NE8       29.97R WCI  25
ISLAND LAKE    FLURRIES  25  21  86 N6        30.02R WCI  18
PILOT MOUND      N/A     34  32  93 E6          N/A
THE PAS        CLEAR     19  18  93 E3        30.06R
THOMPSON       FLURRIES  19  16  86 N5        30.10  WCI  13
WINNIPEG       PTCLDY    30  28  93 NE5       29.99R
LYNN LAKE      CLEAR      7   5  92 NE5       30.10R WCI  -2
CHURCHILL      FLURRIES  10   7  85 N16       30.12R WCI  -7
GILLAM         FLURRIES   7   3  85 NW6       30.07R WCI  -3
$$
                ***SASKATCHEWAN***

CITY           SKY/WX    TMP DP  RH WIND       PRES   REMARKS
ESTEVAN        CLEAR     28  28 100 E6        29.88S WCI  22
KINDERSLEY     FOG       30  30 100 SE13      29.86S VSB 1/4 WCI  20
LLOYDMINSTER   CLEAR     30  28  93 SE16      29.87S WCI  19
PRINCE ALBERT  MOCLDY    19  18  93 NE3       30.00R
REGINA         FOG       28  28 100 N8        29.89S VSB 3/8 WCI  20
YORKTON        CLOUDY    28  28 100 N6        29.91R WC



USA.gov is the U.S. government's official web portal to all federal, state and local government web resources and services.